(°C)
17°
16°
16°
15°
14°
15°
17°
(°C)
17°
16°
15°
15°
14°
15°
17°
SE
ESE
ESE
ESE
E
E
ESE
(km/h)
2-7
2-6
2-5
2-5
2-4
2-3
1-4
(mm)
0
0
0
0
0
0
0
(%)
0
0
0
0
0
0
0

Wysokość słońca

/ -16.2°
sun-icon
UV 5
05:16
21:27
Ubywający Księżyc garbaty (258°)
23:46
12:43

METAR dla 55.27°N 86.11°E (UNEE)

Czas Warunki Temperatura/
Punkt rosy
Wiatr Widzialność Pogoda Chmury Ciśn. atm. Zmień Surowy
VFR 17°C / 10°C 150º 2kt >10km - Clouds and Visibility OK 1008 No Significant change UNEE 291800Z 15001MPS CAVOK 17/10 Q1008 R23/CLRD60 NOSIG RMK QFE733
VFR 17°C / 10°C 160º 2kt >10km - Clouds and Visibility OK 1008 No Significant change UNEE 291730Z 16001MPS CAVOK 17/10 Q1008 R23/CLRD60 NOSIG RMK QFE733
VFR 18°C / 9°C 130º 2kt >10km - Clouds and Visibility OK 1008 No Significant change UNEE 291700Z 13001MPS CAVOK 18/09 Q1008 R23/CLRD60 NOSIG RMK QFE733
VFR 18°C / 9°C variable 0kt >10km - Clouds and Visibility OK 1008 No Significant change UNEE 291630Z 00000MPS CAVOK 18/09 Q1008 R23/CLRD60 NOSIG RMK QFE733
VFR 18°C / 8°C 150º 2kt >10km - Clouds and Visibility OK 1008 No Significant change UNEE 291600Z 15001MPS CAVOK 18/08 Q1008 R23/CLRD60 NOSIG RMK QFE733
VFR 18°C / 9°C 150º 2kt >10km - Clouds and Visibility OK 1008 No Significant change UNEE 291530Z 15001MPS CAVOK 18/09 Q1008 R23/CLRD60 NOSIG RMK QFE733
VFR 19°C / 9°C 140º 2kt >10km - Clouds and Visibility OK 1008 No Significant change UNEE 291500Z 14001MPS CAVOK 19/09 Q1008 R23/CLRD60 NOSIG RMK QFE733
VFR 19°C / 9°C 170º 2kt >10km - Clear 1008 No Significant change UNEE 291430Z 17001MPS 9999 NSC 19/09 Q1008 R23/CLRD60 NOSIG RMK QFE733
VFR 20°C / 9°C variable 0kt >10km - Clouds and Visibility OK 1008 No Significant change UNEE 291400Z 00000MPS CAVOK 20/09 Q1008 R23/CLRD60 NOSIG RMK QFE733
VFR 21°C / 10°C 140º 2kt >10km - Clouds and Visibility OK 1008 No Significant change UNEE 291330Z 14001MPS CAVOK 21/10 Q1008 R23/CLRD60 NOSIG RMK QFE733
VFR 22°C / 10°C 170º 2kt >10km - Clouds and Visibility OK 1008 No Significant change UNEE 291300Z 17001MPS CAVOK 22/10 Q1008 R23/CLRD60 NOSIG RMK QFE733
VFR 22°C / 10°C 170º 2kt >10km - Clouds and Visibility OK 1008 No Significant change UNEE 291230Z 17001MPS CAVOK 22/10 Q1008 R23/CLRD60 NOSIG RMK QFE733
VFR 22°C / 8°C 160º 2kt >10km - Clouds and Visibility OK 1008 No Significant change UNEE 291200Z 16001MPS CAVOK 22/08 Q1008 R23/CLRD60 NOSIG RMK QFE733
VFR 23°C / 9°C 180º variable 120º to 210º 4kt >10km - Clouds and Visibility OK 1008 No Significant change UNEE 291130Z 18002MPS 120V210 CAVOK 23/09 Q1008 R23/CLRD60 NOSIG RMK QFE733
VFR 23°C / 8°C 140º variable 110º to 200º 4kt >10km - Clouds and Visibility OK 1009 No Significant change UNEE 291100Z 14002MPS 110V200 CAVOK 23/08 Q1009 R23/CLRD60 NOSIG RMK QFE734
VFR 23°C / 8°C 300º 2kt >10km - Clouds and Visibility OK 1009 No Significant change UNEE 291030Z 30001MPS CAVOK 23/08 Q1009 R23/CLRD60 NOSIG RMK QFE734
VFR 22°C / 8°C 300º variable 260º to 330º 4kt >10km - Clouds and Visibility OK 1009 No Significant change UNEE 291000Z 30002MPS 260V330 CAVOK 22/08 Q1009 R23/CLRD60 NOSIG RMK QFE734
VFR 23°C / 8°C 280º 6kt >10km - Clouds and Visibility OK 1009 No Significant change UNEE 290930Z 28003MPS CAVOK 23/08 Q1009 R23/CLRD60 NOSIG RMK QFE734
VFR 23°C / 8°C 190º variable 140º to 240º 6kt >10km - Clouds and Visibility OK 1009 No Significant change UNEE 290900Z 19003MPS 140V240 CAVOK 23/08 Q1009 R23/CLRD60 NOSIG RMK QFE734
VFR 24°C / 8°C 250º variable 190º to 270º 6kt >10km - Clouds and Visibility OK 1009 No Significant change UNEE 290830Z 25003MPS 190V270 CAVOK 24/08 Q1009 R23/CLRD60 NOSIG RMK QFE734
VFR 23°C / 7°C 230º 4kt >10km - Clouds and Visibility OK 1009 No Significant change UNEE 290800Z 23002MPS CAVOK 23/07 Q1009 R23/CLRD60 NOSIG RMK QFE734
VFR 23°C / 8°C 210º variable 160º to 280º 4kt >10km - Few Clouds 4400ft 1009 No Significant change UNEE 290730Z 21002MPS 160V280 9999 FEW044 23/08 Q1009 R23/CLRD60 NOSIG RMK QFE734
VFR 24°C / 9°C 250º 2kt >10km - Few Clouds 4400ft 1009 No Significant change UNEE 290700Z 25001MPS 9999 FEW044 24/09 Q1009 R23/CLRD60 NOSIG RMK QFE734
VFR 21°C / 9°C 120º variable 090º to 170º 4kt >10km - Scattered Clouds 4400ft 1009 No Significant change UNEE 290630Z 12002MPS 090V170 9999 SCT044 21/09 Q1009 R23/CLRD60 NOSIG RMK QFE734

VFR

17°C / 10°C

[Więcej]
Wiatr 150º 2kt
Widzialność >10km
Pogoda -
Chmury Clouds and Visibility OK
Ciśn. atm. 1008
Zmień No Significant change
Surowy UNEE 291800Z 15001MPS CAVOK 17/10 Q1008 R23/CLRD60 NOSIG RMK QFE733

VFR

17°C / 10°C

[Więcej]
Wiatr 160º 2kt
Widzialność >10km
Pogoda -
Chmury Clouds and Visibility OK
Ciśn. atm. 1008
Zmień No Significant change
Surowy UNEE 291730Z 16001MPS CAVOK 17/10 Q1008 R23/CLRD60 NOSIG RMK QFE733

VFR

18°C / 9°C

[Więcej]
Wiatr 130º 2kt
Widzialność >10km
Pogoda -
Chmury Clouds and Visibility OK
Ciśn. atm. 1008
Zmień No Significant change
Surowy UNEE 291700Z 13001MPS CAVOK 18/09 Q1008 R23/CLRD60 NOSIG RMK QFE733

VFR

18°C / 9°C

[Więcej]
Wiatr variable 0kt
Widzialność >10km
Pogoda -
Chmury Clouds and Visibility OK
Ciśn. atm. 1008
Zmień No Significant change
Surowy UNEE 291630Z 00000MPS CAVOK 18/09 Q1008 R23/CLRD60 NOSIG RMK QFE733

VFR

18°C / 8°C

[Więcej]
Wiatr 150º 2kt
Widzialność >10km
Pogoda -
Chmury Clouds and Visibility OK
Ciśn. atm. 1008
Zmień No Significant change
Surowy UNEE 291600Z 15001MPS CAVOK 18/08 Q1008 R23/CLRD60 NOSIG RMK QFE733

VFR

18°C / 9°C

[Więcej]
Wiatr 150º 2kt
Widzialność >10km
Pogoda -
Chmury Clouds and Visibility OK
Ciśn. atm. 1008
Zmień No Significant change
Surowy UNEE 291530Z 15001MPS CAVOK 18/09 Q1008 R23/CLRD60 NOSIG RMK QFE733

VFR

19°C / 9°C

[Więcej]
Wiatr 140º 2kt
Widzialność >10km
Pogoda -
Chmury Clouds and Visibility OK
Ciśn. atm. 1008
Zmień No Significant change
Surowy UNEE 291500Z 14001MPS CAVOK 19/09 Q1008 R23/CLRD60 NOSIG RMK QFE733

VFR

19°C / 9°C

[Więcej]
Wiatr 170º 2kt
Widzialność >10km
Pogoda -
Chmury Clear
Ciśn. atm. 1008
Zmień No Significant change
Surowy UNEE 291430Z 17001MPS 9999 NSC 19/09 Q1008 R23/CLRD60 NOSIG RMK QFE733

VFR

20°C / 9°C

[Więcej]
Wiatr variable 0kt
Widzialność >10km
Pogoda -
Chmury Clouds and Visibility OK
Ciśn. atm. 1008
Zmień No Significant change
Surowy UNEE 291400Z 00000MPS CAVOK 20/09 Q1008 R23/CLRD60 NOSIG RMK QFE733

VFR

21°C / 10°C

[Więcej]
Wiatr 140º 2kt
Widzialność >10km
Pogoda -
Chmury Clouds and Visibility OK
Ciśn. atm. 1008
Zmień No Significant change
Surowy UNEE 291330Z 14001MPS CAVOK 21/10 Q1008 R23/CLRD60 NOSIG RMK QFE733

VFR

22°C / 10°C

[Więcej]
Wiatr 170º 2kt
Widzialność >10km
Pogoda -
Chmury Clouds and Visibility OK
Ciśn. atm. 1008
Zmień No Significant change
Surowy UNEE 291300Z 17001MPS CAVOK 22/10 Q1008 R23/CLRD60 NOSIG RMK QFE733

VFR

22°C / 10°C

[Więcej]
Wiatr 170º 2kt
Widzialność >10km
Pogoda -
Chmury Clouds and Visibility OK
Ciśn. atm. 1008
Zmień No Significant change
Surowy UNEE 291230Z 17001MPS CAVOK 22/10 Q1008 R23/CLRD60 NOSIG RMK QFE733

VFR

22°C / 8°C

[Więcej]
Wiatr 160º 2kt
Widzialność >10km
Pogoda -
Chmury Clouds and Visibility OK
Ciśn. atm. 1008
Zmień No Significant change
Surowy UNEE 291200Z 16001MPS CAVOK 22/08 Q1008 R23/CLRD60 NOSIG RMK QFE733

VFR

23°C / 9°C

[Więcej]
Wiatr 180º variable 120º to 210º 4kt
Widzialność >10km
Pogoda -
Chmury Clouds and Visibility OK
Ciśn. atm. 1008
Zmień No Significant change
Surowy UNEE 291130Z 18002MPS 120V210 CAVOK 23/09 Q1008 R23/CLRD60 NOSIG RMK QFE733

VFR

23°C / 8°C

[Więcej]
Wiatr 140º variable 110º to 200º 4kt
Widzialność >10km
Pogoda -
Chmury Clouds and Visibility OK
Ciśn. atm. 1009
Zmień No Significant change
Surowy UNEE 291100Z 14002MPS 110V200 CAVOK 23/08 Q1009 R23/CLRD60 NOSIG RMK QFE734

VFR

23°C / 8°C

[Więcej]
Wiatr 300º 2kt
Widzialność >10km
Pogoda -
Chmury Clouds and Visibility OK
Ciśn. atm. 1009
Zmień No Significant change
Surowy UNEE 291030Z 30001MPS CAVOK 23/08 Q1009 R23/CLRD60 NOSIG RMK QFE734

VFR

22°C / 8°C

[Więcej]
Wiatr 300º variable 260º to 330º 4kt
Widzialność >10km
Pogoda -
Chmury Clouds and Visibility OK
Ciśn. atm. 1009
Zmień No Significant change
Surowy UNEE 291000Z 30002MPS 260V330 CAVOK 22/08 Q1009 R23/CLRD60 NOSIG RMK QFE734

VFR

23°C / 8°C

[Więcej]
Wiatr 280º 6kt
Widzialność >10km
Pogoda -
Chmury Clouds and Visibility OK
Ciśn. atm. 1009
Zmień No Significant change
Surowy UNEE 290930Z 28003MPS CAVOK 23/08 Q1009 R23/CLRD60 NOSIG RMK QFE734

VFR

23°C / 8°C

[Więcej]
Wiatr 190º variable 140º to 240º 6kt
Widzialność >10km
Pogoda -
Chmury Clouds and Visibility OK
Ciśn. atm. 1009
Zmień No Significant change
Surowy UNEE 290900Z 19003MPS 140V240 CAVOK 23/08 Q1009 R23/CLRD60 NOSIG RMK QFE734

VFR

24°C / 8°C

[Więcej]
Wiatr 250º variable 190º to 270º 6kt
Widzialność >10km
Pogoda -
Chmury Clouds and Visibility OK
Ciśn. atm. 1009
Zmień No Significant change
Surowy UNEE 290830Z 25003MPS 190V270 CAVOK 24/08 Q1009 R23/CLRD60 NOSIG RMK QFE734

VFR

23°C / 7°C

[Więcej]
Wiatr 230º 4kt
Widzialność >10km
Pogoda -
Chmury Clouds and Visibility OK
Ciśn. atm. 1009
Zmień No Significant change
Surowy UNEE 290800Z 23002MPS CAVOK 23/07 Q1009 R23/CLRD60 NOSIG RMK QFE734

VFR

23°C / 8°C

[Więcej]
Wiatr 210º variable 160º to 280º 4kt
Widzialność >10km
Pogoda -
Chmury Few Clouds 4400ft
Ciśn. atm. 1009
Zmień No Significant change
Surowy UNEE 290730Z 21002MPS 160V280 9999 FEW044 23/08 Q1009 R23/CLRD60 NOSIG RMK QFE734

VFR

24°C / 9°C

[Więcej]
Wiatr 250º 2kt
Widzialność >10km
Pogoda -
Chmury Few Clouds 4400ft
Ciśn. atm. 1009
Zmień No Significant change
Surowy UNEE 290700Z 25001MPS 9999 FEW044 24/09 Q1009 R23/CLRD60 NOSIG RMK QFE734

VFR

21°C / 9°C

[Więcej]
Wiatr 120º variable 090º to 170º 4kt
Widzialność >10km
Pogoda -
Chmury Scattered Clouds 4400ft
Ciśn. atm. 1009
Zmień No Significant change
Surowy UNEE 290630Z 12002MPS 090V170 9999 SCT044 21/09 Q1009 R23/CLRD60 NOSIG RMK QFE734

TAF dla 55.27°N 86.11°E (UNEE)

From till


From till Wind 300º 6kt. Visibility 8000m. Broken Clouds 4000ft.
Temporarly from till Visibility 305.775m. Fog . Scattered Clouds 200ft. Broken Clouds 1600ft.
Temporarly from till Wind 340º 12kt. Gust 25kt.

Surowy: TAF UNEE 291700Z 2918/3018 30003MPS 8000 BKN040CB TEMPO 2918/3001 0300 FG SCT002 BKN016CB TEMPO 3005/3012 34006G13MPS

Aktualne zdjęcia satelitarne i zdjęcia opadów deszczu dla 55.27°N 86.11°E

Wskaźnik lokalizacji znajduje się na 55.27°N 86.11°E. [Więcej]

Obraz satelitarny w czasie rzeczywistym łączy światło widzialne w ciągu dnia z promieniowaniem podczerwonym w nocy. W nocy obraz nie jest ciemny, ponieważ promieniowanie podczerwone może wykrywać różnice temperatur. Niestety niskie chmury i mgłę trudno odróżnić od temperatury gruntu, przez co mogą być prawie niewidoczne w nocy. Zdjęcia satelitarne Meteosat dla Europy są aktualizowane w czasie rzeczywistym co 5 minut. Obrazy GOES-16/GOES-17 (Ameryka Północna i Południowa) oraz Himawari (Azja) są aktualizowane co 10 minut.

Prawa autorskie 2021 EUMETSAT / meteoblue. / Prawa autorskie 2021 meteoblue

Radar i prognoza opadów na teraz dla 55.27°N 86.11°E

Mżawka
Lekki
Umiarkowane
Ulewne
Bardzo ciężkie
Grad

Wskaźnik lokalizacji jest umieszczony na 55.27°N 86.11°E. Animacja przedstawia radar opadów dla ostatniej godziny, jak również 1h prognozę pogody. Mżawka i lekkie opady mogą być niewidoczne na radarze. Intensywność opadów jest oznaczona kolorami od jasnoniebieskiego do ciemnofioletowego.